Wilmington, NC

11:21 PM EST on January 19, 2018 (GMT -0500)
Wilmington International

Weather History for KILM - August, 2013

Change the Weather History Date:

Wednesday, August 28, 2013

  Actual Average Record
Temperature  
Mean Temperature 82 °F 79 °F  
Max Temperature 91 °F 87 °F 97 °F (1903)
Min Temperature 72 °F 70 °F 56 °F (1874)
Degree Days  
Heating Degree Days 0 0  
Month to date heating degree days 0 0  
Since 1 June heating degree days 0 2  
Since 1 July heating degree days 0 0  
Cooling Degree Days 17 14  
Month to date cooling degree days 376 417  
Year to date cooling degree days 1449 1584  
Since 1 June cooling degree days 1223 1303  
Growing Degree Days 32 (Base 50)    
Moisture  
Dew Point 69 °F    
Average Humidity 68    
Maximum Humidity 84    
Minimum Humidity 52    
Precipitation  
Precipitation T in 0.24 in 3.83 in (2002)
Month to date precipitation 8.67 6.68  
Year to date precipitation 42.48 38.24  
Sea Level Pressure  
Sea Level Pressure 29.97 in    
Wind  
Wind Speed 8 mph (SW)    
Max Wind Speed 13 mph    
Max Gust Speed 16 mph    
Visibility 10 miles    
Events      
T = Trace of Precipitation, MM = Missing Value Source: NWS Daily Summary

Daily Weather History Graph

Daily Weather History Graph

Search for Another Location

Airport or City:

Trip Planner

Search our weather history database for the weather conditions in past years. The results will help you decide how hot, cold, wet, or windy it might be!

Date:

Astronomy

Aug. 28, 2013 Rise Set
Actual Time 6:42 AM EDT 7:42 PM EDT
Civil Twilight 6:16 AM EDT 8:08 PM EDT
Nautical Twilight 5:45 AM EDT 8:38 PM EDT
Astronomical Twilight 5:14 AM EDT 9:10 PM EDT
Moon No Moon Rise 2:11 PM EDT (8/28)
Length of Visible Light 13h 51m
Length of Day
13h 00m
Waning Gibbous, 47% of the Moon is Illuminated
Aug 28
Waning Gibbous
Sep 5
New
Sep 12
First Quarter
Sep 19
Full
Sep 26
Last Quarter

Hourly Weather History & Observations

Time (EDT) Temp. Heat Index Dew Point Humidity Pressure Visibility Wind Dir Wind Speed Gust Speed Precip Events Conditions
12:53 AM 73.0 °F - 64.0 °F 73% 30.02 in 10.0 mi SW 4.6 mph - N/A   Clear
1:53 AM 73.0 °F - 64.9 °F 76% 30.00 in 10.0 mi SW 5.8 mph - N/A   Clear
2:53 AM 73.0 °F - 66.0 °F 79% 29.99 in 10.0 mi SW 4.6 mph - N/A   Clear
3:53 AM 73.0 °F - 66.0 °F 79% 29.99 in 10.0 mi SW 5.8 mph - N/A   Mostly Cloudy
4:53 AM 72.0 °F - 66.0 °F 81% 29.97 in 10.0 mi SW 6.9 mph - N/A   Partly Cloudy
5:53 AM 73.0 °F - 66.0 °F 79% 29.98 in 10.0 mi SW 8.1 mph - N/A   Scattered Clouds
6:53 AM 72.0 °F - 66.0 °F 81% 29.99 in 10.0 mi SW 5.8 mph - N/A   Clear
7:53 AM 73.0 °F - 66.9 °F 81% 29.99 in 10.0 mi SW 8.1 mph - N/A   Clear
8:53 AM 75.9 °F - 68.0 °F 76% 30.00 in 10.0 mi WSW 6.9 mph - N/A   Clear
9:53 AM 79.0 °F - 69.1 °F 72% 30.00 in 10.0 mi SW 6.9 mph - N/A   Clear
10:53 AM 82.9 °F 87.0 °F 70.0 °F 65% 29.99 in 10.0 mi WSW 6.9 mph - N/A   Clear
11:53 AM 84.0 °F 89.0 °F 71.1 °F 65% 29.99 in 10.0 mi SW 6.9 mph - N/A   Clear
12:53 PM 87.1 °F 92.8 °F 71.1 °F 59% 29.99 in 10.0 mi West 8.1 mph - N/A   Clear
1:53 PM 88.0 °F 92.9 °F 70.0 °F 55% 29.97 in 10.0 mi West 9.2 mph 16.1 mph N/A   Clear
2:53 PM 90.0 °F 95.4 °F 70.0 °F 52% 29.95 in 10.0 mi WSW 10.4 mph - N/A   Partly Cloudy
3:53 PM 90.0 °F 95.4 °F 70.0 °F 52% 29.94 in 10.0 mi West 10.4 mph - N/A   Partly Cloudy
4:53 PM 89.1 °F 94.1 °F 70.0 °F 53% 29.93 in 10.0 mi SW 6.9 mph - N/A   Partly Cloudy
5:53 PM 86.0 °F 93.0 °F 73.0 °F 65% 29.92 in 10.0 mi SW 8.1 mph - N/A   Clear
6:53 PM 82.9 °F 88.8 °F 73.0 °F 72% 29.93 in 10.0 mi SSW 9.2 mph - N/A   Scattered Clouds
7:53 PM 81.0 °F 85.2 °F 72.0 °F 74% 29.94 in 10.0 mi SW 4.6 mph - 0.00 in   Partly Cloudy
8:53 PM 80.1 °F 83.6 °F 71.1 °F 74% 29.94 in 10.0 mi SSW 8.1 mph - N/A   Clear
9:53 PM 79.0 °F - 72.0 °F 79% 29.94 in 10.0 mi SSW 8.1 mph - N/A   Clear
10:53 PM 79.0 °F - 72.0 °F 79% 29.94 in 10.0 mi SW 8.1 mph - N/A   Clear
11:53 PM 79.0 °F - 72.0 °F 79% 29.93 in 10.0 mi SW 8.1 mph - N/A   Clear